Latest Weather Observations for Mildura

IDN60801

Issued at 4:35 pm EST Thursday 17 April 2014 (issued every 30 minutes, with the page automatically refreshed every 10 minutes)

About weather observations | Map of weather stations | Latest weather observations for NSW | Other Formats
Station Details ID: 076031 Name: MILDURA AIRPORT Lat: -34.24 Lon: 142.09 Height: 50.0 m
Data from the previous 72 hours. | See also: Recent months at Mildura
Date/Time
EST
Temp
°C
App
Temp
°C
Dew
Point
Rel
Hum
%
Delta-T
°C
Wind Press
QNH
hPa
Press
MSL
hPa
Rain
since 9 am
mm
Dir
 
Spd
km/h
Gust
km/h
Spd
kts
Gust
kts
17/04:30pm 23.8 20.7 7.1 34 8.7 W 13 22 7 12 1019.1 - 0.0
17/04:00pm 24.1 21.1 7.5 34 8.7 W 13 24 7 13 1019.0 1018.9 0.0
17/03:30pm 24.0 20.5 7.1 33 8.8 W 15 22 8 12 1019.2 - 0.0
17/03:00pm 24.2 21.7 8.2 36 8.5 WNW 11 19 6 10 1019.6 1019.5 0.0
17/02:30pm 23.6 20.8 8.4 37 8.1 W 13 19 7 10 1019.6 - 0.0
17/02:00pm 24.0 21.0 7.9 35 8.5 WNW 13 24 7 13 1019.9 1019.8 0.0
17/01:30pm 23.8 20.8 7.9 36 8.4 WNW 13 20 7 11 1020.2 - 0.0
17/01:00pm 23.9 22.1 9.3 39 7.9 WNW 9 15 5 8 1020.6 1020.5 0.0
17/12:30pm 22.6 20.2 8.7 41 7.4 W 11 17 6 9 1021.0 - 0.0
17/12:00pm 22.7 20.7 8.5 40 7.5 WNW 9 17 5 9 1021.6 1021.5 0.0
17/11:00am 21.8 19.8 8.5 42 7.0 WNW 9 13 5 7 1021.9 1021.8 0.0
17/10:30am 21.1 19.4 8.5 44 6.6 NW 7 13 4 7 1021.9 - 0.0
17/10:00am 20.2 18.5 8.5 47 6.1 N 7 9 4 5 1021.9 1021.8 0.0
17/09:30am 18.7 17.1 8.7 52 5.2 N 7 9 4 5 1021.8 - 0.0
17/09:00am 17.1 15.7 9.4 60 4.0 NW 7 9 4 5 1021.9 1021.8 0.0
17/08:30am 15.5 13.8 9.7 68 3.0 NW 9 11 5 6 1021.8 - 0.0
17/08:00am 13.3 11.4 8.9 74 2.2 N 9 11 5 6 1021.4 1021.3 0.0
17/07:30am 11.0 9.6 9.6 91 0.7 N 7 7 4 4 1020.9 - 0.0
17/07:00am 9.9 8.5 8.9 93 0.5 N 6 7 3 4 1020.9 1020.8 0.0
17/06:30am 9.8 9.6 9.0 95 0.4 CALM 0 0 0 0 1020.5 - 0.0
17/06:00am 9.6 9.3 8.8 95 0.4 ENE 0 0 0 0 1020.2 1020.1 0.0
17/05:30am 9.5 8.9 8.9 96 0.3 NE 2 6 1 3 1020.0 - 0.0
17/05:00am 11.2 9.9 9.8 91 0.7 NNE 7 9 4 5 1019.8 1019.7 0.0
17/04:30am 11.1 9.5 8.7 85 1.2 NNE 7 7 4 4 1019.6 - 0.0
17/04:00am 10.6 10.4 9.0 90 0.8 CALM 0 0 0 0 1019.5 1019.4 0.0
17/03:30am 10.7 10.6 9.5 92 0.6 CALM 0 0 0 0 1019.3 - 0.0
17/03:00am 11.1 11.1 9.9 92 0.6 CALM 0 0 0 0 1019.4 1019.3 0.0
17/02:30am 11.5 11.7 10.5 94 0.5 CALM 0 0 0 0 1019.4 - 0.0
17/02:00am 12.1 12.3 10.4 89 0.9 CALM 0 0 0 0 1019.5 1019.4 0.0
17/01:30am 12.4 11.8 10.5 88 1.0 W 4 7 2 4 1019.7 - 0.0
17/01:00am 13.6 14.1 11.5 87 1.1 CALM 0 0 0 0 1019.7 1019.6 0.0
17/12:30am 14.8 15.4 12.0 83 1.5 CALM 0 0 0 0 1019.7 - 0.0
17/12:00am 15.4 15.9 11.7 78 2.0 NNE 0 0 0 0 1019.8 1019.7 0.0
 
Date/Time
EST
Temp
°C
App
Temp
°C
Dew
Point
Rel
Hum
%
Delta-T
°C
Wind Press
QNH
hPa
Press
MSL
hPa
Rain
since 9 am
mm
Dir
 
Spd
km/h
Gust
km/h
Spd
kts
Gust
kts
16/11:30pm 14.8 15.3 11.6 81 1.7 CALM 0 0 0 0 1020.0 - 0.0
16/11:00pm 14.8 15.2 11.2 79 1.9 CALM 0 0 0 0 1020.1 1020.0 0.0
16/10:30pm 14.6 14.9 10.8 78 2.0 CALM 0 0 0 0 1020.1 - 0.0
16/10:00pm 15.1 14.8 11.4 78 2.0 N 4 6 2 3 1020.0 1019.9 0.0
16/09:30pm 15.5 14.5 10.2 70 2.8 N 6 7 3 4 1019.9 - 0.0
16/09:00pm 14.6 13.3 10.0 74 2.4 NNE 7 7 4 4 1019.8 1019.7 0.0
16/08:30pm 15.4 15.5 10.0 70 2.8 CALM 0 0 0 0 1019.9 - 0.0
16/08:00pm 16.4 16.7 10.8 69 3.0 CALM 0 0 0 0 1019.7 1019.6 0.0
16/07:30pm 17.4 15.6 7.9 53 4.8 WNW 7 7 4 4 1019.7 - 0.0
16/07:00pm 17.3 15.8 9.0 58 4.3 W 7 9 4 5 1019.6 1019.5 0.0
16/06:30pm 18.5 16.9 8.9 53 5.0 WSW 7 9 4 5 1019.2 - 0.0
16/06:00pm 20.3 18.7 8.2 45 6.3 WSW 6 7 3 4 1018.9 1018.8 0.0
16/05:30pm 22.3 20.3 7.2 37 7.8 WSW 7 9 4 5 1018.7 - 0.0
16/05:00pm 22.4 19.1 4.5 31 8.8 WSW 11 17 6 9 1018.7 1018.6 0.0
16/04:30pm 22.9 19.9 5.9 33 8.6 SW 11 19 6 10 1018.6 - 0.0
16/04:00pm 23.1 20.2 6.5 34 8.5 WSW 11 19 6 10 1018.6 1018.5 0.0
16/03:30pm 23.4 20.7 5.6 31 9.0 WNW 9 17 5 9 1018.6 - 0.0
16/03:00pm 23.2 21.1 5.8 32 8.8 NW 6 17 3 9 1018.6 1018.5 0.0
16/02:30pm 23.0 20.6 5.2 31 8.9 WSW 7 15 4 8 1018.7 - 0.0
16/02:00pm 23.1 21.7 7.1 35 8.3 N 4 15 2 8 1018.7 1018.6 0.0
16/01:30pm 22.8 21.0 7.9 38 7.8 N 7 13 4 7 1019.0 - 0.0
16/01:00pm 22.0 20.8 8.1 41 7.3 WSW 4 7 2 4 1019.3 1019.2 0.0
16/12:30pm 21.9 20.3 8.2 41 7.2 WSW 6 11 3 6 1019.9 - 0.0
16/12:00pm 20.9 19.9 7.2 41 7.0 NW 2 13 1 7 1020.4 1020.3 0.0
16/11:30am 21.0 19.5 8.4 44 6.6 NW 6 11 3 6 1020.9 - 0.0
16/11:00am 20.2 20.2 9.9 51 5.5 CALM 0 6 0 3 1021.1 1021.0 0.0
16/10:30am 19.2 18.9 10.2 56 4.8 NE 2 9 1 5 1021.3 - 0.0
16/10:00am 18.1 18.2 10.2 60 4.2 CALM 0 0 0 0 1021.7 1021.6 0.0
16/09:30am 16.5 15.6 10.7 68 3.1 E 6 9 3 5 1021.4 - 0.0
16/09:00am 15.4 14.3 10.5 72 2.6 E 7 9 4 5 1021.4 1021.3 0.0
16/08:30am 13.0 11.9 10.1 82 1.5 ESE 6 7 3 4 1021.3 - 0.0
16/08:00am 10.8 9.4 8.8 87 1.0 SE 6 9 3 5 1021.3 1021.2 0.0
16/07:30am 9.4 7.5 7.7 89 0.8 S 7 11 4 6 1021.3 - 0.0
16/07:00am 8.8 6.6 7.7 93 0.5 SSW 9 11 5 6 1021.0 1020.9 0.0
16/06:30am 8.8 6.5 7.5 91 0.6 S 9 11 5 6 1020.7 - 0.0
16/06:00am 8.3 6.9 7.4 94 0.4 S 4 7 2 4 1020.3 1020.2 0.0
16/05:30am 8.7 7.0 7.6 93 0.5 S 6 7 3 4 1020.4 - 0.0
16/05:00am 8.8 6.6 7.7 93 0.5 SSW 9 11 5 6 1020.5 1020.4 0.0
16/04:30am 8.8 7.1 7.7 93 0.5 S 6 9 3 5 1020.3 - 0.0
16/04:00am 8.8 6.9 7.7 93 0.5 S 7 11 4 6 1020.1 1020.0 0.0
16/03:30am 9.2 7.0 7.9 92 0.6 SW 9 11 5 6 1020.0 - 0.0
16/03:00am 9.4 7.3 8.4 93 0.5 SSW 9 9 5 5 1019.8 1019.7 0.0
16/02:30am 9.3 7.7 8.1 92 0.6 S 6 7 3 4 1019.9 - 0.0
16/02:00am 9.6 8.1 8.6 93 0.5 SSE 6 6 3 3 1019.9 1019.8 0.0
16/01:30am 9.8 8.3 8.6 92 0.6 SSE 6 7 3 4 1020.1 - 0.0
16/01:00am 10.3 8.9 8.9 91 0.7 S 6 6 3 3 1020.4 1020.3 0.0
16/12:30am 10.7 9.1 8.7 87 1.0 S 7 9 4 5 1020.6 - 0.0
16/12:00am 11.0 9.5 9.0 87 1.0 S 7 7 4 4 1020.4 1020.3 0.0
 
Date/Time
EST
Temp
°C
App
Temp
°C
Dew
Point
Rel
Hum
%
Delta-T
°C
Wind Press
QNH
hPa
Press
MSL
hPa
Rain
since 9 am
mm
Dir
 
Spd
km/h
Gust
km/h
Spd
kts
Gust
kts
15/11:30pm 11.5 9.9 8.7 83 1.4 S 7 9 4 5 1020.7 - 0.0
15/11:00pm 11.4 9.9 8.6 83 1.4 S 6 9 3 5 1020.9 1020.8 0.0
15/10:30pm 12.2 10.7 8.6 78 1.8 S 6 7 3 4 1021.1 - 0.0
15/10:00pm 12.4 10.8 8.8 79 1.8 SSW 7 9 4 5 1021.2 1021.1 0.0
15/09:30pm 13.0 11.5 8.6 74 2.2 S 6 7 3 4 1021.2 - 0.0
15/09:00pm 13.4 11.8 8.8 74 2.3 SSW 7 7 4 4 1021.4 1021.3 0.0
15/08:30pm 14.2 12.9 9.1 71 2.6 SSW 6 7 3 4 1021.3 - 0.0
15/08:00pm 14.8 13.2 8.7 67 3.1 SSW 7 7 4 4 1020.9 1020.8 0.0
15/07:30pm 15.0 13.6 8.9 67 3.1 SSW 6 7 3 4 1020.8 - 0.0
15/07:00pm 16.1 15.1 8.9 62 3.7 S 4 7 2 4 1020.4 1020.3 0.0
15/06:30pm 17.3 16.1 9.4 59 4.1 S 6 7 3 4 1020.3 - 0.0
15/06:00pm 19.1 17.1 8.5 50 5.5 SE 9 11 5 6 1020.0 1019.9 0.0
15/05:30pm 20.8 17.9 6.5 39 7.2 S 11 17 6 9 1019.9 - 0.0
15/05:00pm 21.3 18.5 6.8 39 7.4 S 11 17 6 9 1019.7 1019.6 0.0
15/04:30pm 21.5 18.7 7.1 39 7.4 S 11 17 6 9 1019.6 - 0.0
15/04:00pm 21.4 18.3 7.2 40 7.3 SSE 13 20 7 11 1019.6 1019.5 0.0
15/03:30pm 21.4 18.7 7.2 40 7.3 S 11 19 6 10 1019.9 - 0.0
15/03:00pm 21.2 17.9 6.6 38 7.4 S 13 19 7 10 1020.1 1020.0 0.0
15/02:30pm 21.2 18.3 6.6 38 7.4 S 11 17 6 9 1020.0 - 0.0
15/02:00pm 21.0 18.6 6.8 39 7.2 SSW 9 17 5 9 1020.1 1020.0 0.0
15/01:30pm 20.9 17.8 7.2 41 7.0 S 13 20 7 11 1020.3 - 0.0
15/01:00pm 20.4 18.1 7.5 43 6.6 SSE 9 15 5 8 1020.9 1020.8 0.0
15/12:30pm 20.1 17.5 7.6 44 6.4 SSW 11 17 6 9 1021.4 - 0.0
15/12:00pm 19.5 16.7 8.5 49 5.7 S 13 19 7 10 1021.8 1021.7 0.0
15/11:30am 19.2 16.7 9.6 53 5.1 S 13 17 7 9 1022.1 - 0.0
15/11:00am 18.4 16.7 9.9 57 4.5 S 9 15 5 8 1022.5 1022.4 0.0
15/10:30am 17.1 14.9 9.2 59 4.1 SSE 11 20 6 11 1022.7 - 0.0
15/10:00am 16.1 14.0 9.8 66 3.3 SSE 11 17 6 9 1023.0 1022.9 0.0
15/09:30am 14.9 12.7 9.2 68 2.9 SSE 11 17 6 9 1023.0 - 0.0
15/09:00am 13.9 11.4 9.6 75 2.2 SSE 13 19 7 10 1022.9 1022.8 0.0
15/08:30am 12.3 9.2 8.9 80 1.7 SSE 15 20 8 11 1022.8 - 0.0
15/08:00am 11.3 8.9 8.7 84 1.3 S 11 15 6 8 1022.6 1022.5 0.0
15/07:30am 10.2 8.2 8.6 90 0.8 S 9 13 5 7 1022.3 - 0.0
15/07:00am 9.9 7.9 8.5 91 0.7 S 9 13 5 7 1022.0 1021.9 0.0
15/06:30am 10.2 8.6 8.6 90 0.8 S 7 13 4 7 1021.8 - 0.0
15/06:00am 10.4 8.3 8.3 87 1.0 S 9 11 5 6 1021.6 1021.5 0.0
15/05:30am 10.7 8.7 8.5 86 1.1 S 9 15 5 8 1021.5 - 0.0
15/05:00am 10.7 8.7 8.5 86 1.1 S 9 11 5 6 1021.3 1021.2 0.0
15/04:30am 10.9 8.9 8.5 85 1.2 S 9 13 5 7 1021.2 - 0.0
15/04:00am 11.2 9.2 8.6 84 1.3 S 9 13 5 7 1020.9 1020.8 0.0
15/03:30am 11.4 9.4 8.8 84 1.3 S 9 13 5 7 1020.8 - 0.0
15/03:00am 11.7 9.8 8.9 83 1.4 S 9 15 5 8 1020.8 1020.7 0.0
15/02:30am 12.1 9.8 9.1 82 1.5 S 11 17 6 9 1020.9 - 0.0
15/02:00am 11.4 9.9 9.2 86 1.1 S 7 13 4 7 1021.0 1020.9 0.0
15/01:30am 11.8 10.3 9.2 84 1.3 S 7 9 4 5 1020.9 - 0.0
15/01:00am 12.0 10.7 9.2 83 1.4 S 6 7 3 4 1021.0 1020.9 0.0
15/12:30am 12.7 11.2 9.3 80 1.7 SSE 7 9 4 5 1020.8 - 0.0
15/12:00am 13.0 11.6 9.5 79 1.8 S 7 9 4 5 1020.8 1020.7 0.0
 
Date/Time
EST
Temp
°C
App
Temp
°C
Dew
Point
Rel
Hum
%
Delta-T
°C
Wind Press
QNH
hPa
Press
MSL
hPa
Rain
since 9 am
mm
Dir
 
Spd
km/h
Gust
km/h
Spd
kts
Gust
kts
14/11:30pm 13.8 12.0 9.3 74 2.3 S 9 13 5 7 1020.8 - 0.0
14/11:00pm 13.3 11.0 9.1 76 2.1 SSW 11 15 6 8 1021.0 1020.9 0.0
14/10:30pm 14.0 12.1 9.1 72 2.5 S 9 11 5 6 1021.1 - 0.0
14/10:00pm 14.3 12.3 8.8 69 2.8 S 9 11 5 6 1021.1 1021.0 0.0
14/09:30pm 14.4 12.9 9.3 71 2.6 S 7 9 4 5 1021.1 - 0.0
14/09:00pm 15.0 13.5 9.1 68 3.0 S 7 9 4 5 1021.0 1020.9 0.0
14/08:30pm 15.9 14.0 8.9 63 3.6 S 9 11 5 6 1020.7 - 0.0
14/08:00pm 16.3 14.3 8.7 60 3.9 SSW 9 11 5 6 1020.6 1020.5 0.0
14/07:30pm 16.8 15.3 9.1 60 4.0 SSW 7 9 4 5 1020.5 - 0.0
14/07:00pm 17.3 15.8 9.2 59 4.2 SSW 7 9 4 5 1020.2 1020.1 0.0
14/06:30pm 18.0 16.6 9.4 57 4.5 S 7 9 4 5 1020.0 - 0.0
14/06:00pm 19.4 17.9 9.1 51 5.4 S 7 11 4 6 1019.7 1019.6 0.0
14/05:30pm 20.4 18.4 8.6 46 6.2 S 9 13 5 7 1019.6 - 0.0
14/05:00pm 21.4 18.0 7.7 41 7.1 S 15 22 8 12 1019.4 1019.3 0.0

Other Formats:

Comma delimited format used in spreadsheet applications
http://www.bom.gov.au/fwo/IDN60801/IDN60801.94693.axf

JavaScript Object Notation format (JSON) in row-major order
http://www.bom.gov.au/fwo/IDN60801/IDN60801.94693.json